Flag Weather past 2 weeks in Filderstadt, Baden-Württemberg, Germany

Now
45 °F

Overcast.


Feels Like: 43 °F
Forecast: 38 / 48 °F
Wind: 3 mph from East

Location: Stuttgart-Echterdingen

Current Time: Nov 26, 2014 at 2:11:44 PM

Latest Report: Nov 26, 2014 at 2:00 PM


Visibility: 13 mi

Pressure: 29.99 "Hg

Humidity: 83%

Dew point: 40 °F

Location of FilderstadtLocation

Historic Weather in Filderstadt — Graph

°F

Filderstadt temperature yesterday

Maximum temperature yesterday: 47 °F (at 12:00 PM)
Minimum temperature yesterday: 43 °F (at 11:00 PM)
Average temperature yesterday: 46 °F

Past Weeks' High & Low Weather Summary

 TemperatureHumidityPressure
High56 °F (Nov 22, 2:00 PM)100% (Nov 12, 5:00 AM)30.35 "Hg (Nov 12, 5:00 AM)
Low34 °F (Nov 23, 9:00 AM)65% (Nov 16, 3:00 PM)29.54 "Hg (Nov 16, 12:00 AM)
Average44 °F90%29.97 "Hg
* Reported Nov 11 1:00 PM — Nov 26 1:00 PM, Filderstadt, Weather by CustomWeather, © 2014

Note: Actual official high and low records may vary slightly from our data, if they occured in-between our weather recording intervals... More about our weather records

Advertising

Filderstadt weather history for previous 24 hours

 ConditionsComfort  
Time TempWeatherWind HumidityBarometerVisibility
1:00 PM
Nov 26
45 °FOvercast.3 mph81%30.01 "Hg10 mi
12:00 PM43 °FOvercast.5 mph84%30.03 "Hg7 mi
11:00 AM42 °FOvercast.3 mph86%30.05 "Hg6 mi
9:00 AM40 °FOvercast.3 mph89%30.06 "Hg6 mi
8:00 AM40 °FOvercast.3 mph89%30.05 "Hg6 mi
7:00 AM40 °FOvercast.3 mph89%30.06 "Hg6 mi
6:00 AM40 °FOvercast.2 mph88%30.07 "Hg8 mi
5:00 AM41 °FOvercast.2 mph88%30.08 "Hg7 mi
3:00 AM41 °FOvercast.3 mph89%30.10 "Hg7 mi
2:00 AM42 °FOvercast.3 mph86%30.11 "Hg7 mi
1:00 AM42 °FOvercast.2 mph85%30.12 "Hg9 mi
12:00 AM42 °FOvercast.3 mph85%30.14 "Hg9 mi
11:00 PM
Nov 25
43 °FOvercast.5 mph84%30.14 "Hg9 mi
9:00 PM44 °FOvercast.6 mph81%30.15 "Hg8 mi
8:00 PM45 °FOvercast.3 mph85%30.15 "Hg9 mi
7:00 PM45 °FOvercast.5 mph85%30.15 "Hg9 mi
6:00 PM45 °FOvercast.5 mph85%30.16 "Hg9 mi
5:00 PM46 °FOvercast.5 mph85%30.16 "Hg9 mi
3:00 PM47 °FOvercast.5 mph83%30.17 "Hg9 mi
2:00 PM47 °FOvercast.6 mph84%30.18 "Hg9 mi
Weather by CustomWeather, © 2014

See weather overviewHow to use our weather pages